Starlink 11493

operational
NORAD ID: 62410 Int'l Des: 2024-249 Owner: SPXS Country: US Constellation: starlink
LEOCIRCULAR

About Starlink 11493

Description loading...

Live Position

Loading 3D Globe...

Upcoming Passes

Altitude History

Altitude vs Time

uPlot chart will show altitude changes over time

Two-Line Element Set

1 62410U 24249B 26033.38421206 .00054901 00000-0 42806-3 0 9996
2 62410 42.9981 20.8590 0001286 248.7588 111.3142 15.70866124 63924
Epoch: Feb 2, 2026 • Age: 17 hours

Current Status

Altitude 356.3 km
Velocity 7.70 km/s
Sub-Earth Point 21.00°N, 124.61°W
Launch Date Dec 23, 2024
Age 1.1 years
Type internet

Technical Details

Classification Payload
Mass 960.00 kg
Dry Mass 910.00 kg
Total Mass 960.00 kg
Length 0.30 m
Diameter 4.10 m
Span 29.00 m
Shape Box + pan
Manufacturer SPXS
Bus Type Starlink V2MD
Phase Status In Orbit
Owner/State SPXS/US

Large Constellations

Loading constellations...